Temperature
25 24 23 23 21 20 21 22 22 22 21 21 21 21 20 19 19 18 19 19 19 18 18 18 18 18 18 18 18 18 18 18 18 18 18 18 18 18 18 18 18 18 18 18 18 18 18 18 18
25 24 24 23 20 19 21 22 22 22 22 22 21 20 19 18 18 19 19 19 19 19 18 18 18 18 18 18 18 18 18 18 18 18 18 18 18 18 18 18 18 18 18 18 17 18 18 18 18
25 25 24 20 20 20 21 22 22 22 22 22 21 20 19 19 19 19 19 19 19 19 19 18 18 18 18 18 18 18 18 18 18 18 18 18 18 18 18 18 18 18 18 18 17 17 17 17 17
26 25 24 21 22 22 22 22 22 22 22 22 21 20 19 19 20 20 19 19 19 19 19 18 18 18 18 18 18 18 18 18 18 18 18 18 18 18 18 18 18 18 18 18 17 17 17 17 17
26 25 21 21 23 23 23 23 23 22 22 21 21 19 19 19 20 20 19 19 19 19 19 18 18 18 18 18 18 18 18 18 18 18 18 18 18 18 18 18 18 18 18 17 17 17 17 17 17
26 22 21 21 23 23 23 23 23 22 21 21 20 19 18 19 20 20 19 19 19 19 19 18 18 18 18 18 18 18 18 18 18 18 18 18 18 18 18 18 18 18 18 17 17 17 17 17 17
25 21 22 22 23 23 23 23 22 22 22 21 21 19 19 19 19 19 19 19 19 19 19 19 18 18 18 18 18 18 18 18 18 18 18 18 18 18 18 18 18 18 17 17 17 17 17 17 17
26 21 23 22 23 23 24 23 23 22 22 21 21 19 19 19 19 19 19 19 19 19 19 19 19 19 18 18 18 18 18 18 18 18 18 18 18 18 18 18 18 18 17 17 17 17 17 17 17
27 22 22 23 23 23 24 23 23 23 22 22 22 21 21 20 19 19 19 19 19 19 19 19 19 19 19 18 18 18 18 18 18 18 18 18 18 18 18 18 18 17 17 17 17 17 17 17 17
26 22 24 24 24 23 24 23 23 22 22 21 21 21 20 20 19 19 19 19 19 19 19 19 19 19 19 19 18 18 18 18 18 18 18 18 18 18 18 18 18 18 17 17 17 17 17 17 17
25 24 25 25 25 25 24 24 23 22 21 21 21 21 20 20 20 20 20 20 19 19 19 19 19 19 19 19 18 18 18 18 18 18 18 18 18 18 18 18 18 18 18 18 18 18 18 17 18
25 25 26 25 26 25 24 24 23 23 23 23 22 22 21 20 20 20 20 20 19 19 19 19 19 19 19 19 18 18 18 18 18 18 18 18 18 18 18 18 18 18 18 18 18 18 18 18 18
26 25 26 26 25 25 24 23 23 23 23 23 22 21 21 21 20 20 20 20 20 20 19 19 19 19 19 19 18 18 18 18 18 18 18 18 18 18 18 18 18 18 18 18 18 18 17 18 18
25 25 25 25 25 25 23 23 23 22 23 22 22 21 21 21 21 20 20 20 20 20 20 19 19 19 19 19 19 18 18 18 18 18 18 18 18 18 18 18 18 18 18 18 18 18 17 17 17
26 24 24 25 25 24 24 23 22 22 22 22 21 21 21 21 21 21 21 20 20 20 20 19 19 19 19 19 18 18 18 18 18 18 18 18 18 18 18 18 18 18 18 18 18 18 18 17 17
25 24 24 24 24 24 24 22 22 22 22 21 21 21 21 21 21 21 21 21 20 20 20 20 19 19 19 19 18 18 18 18 18 18 18 18 18 18 18 18 18 18 18 18 18 18 18 18 17
23 23 24 24 24 24 23 22 22 22 22 21 21 21 21 21 21 21 21 21 21 20 20 20 19 19 19 19 18 18 18 18 18 18 18 18 18 18 18 18 18 18 18 18 18 18 18 17 17
24 24 24 24 24 24 23 22 22 22 22 21 21 21 21 21 22 22 21 21 21 20 20 20 19 19 19 19 18 18 18 18 18 18 18 18 18 18 18 18 18 18 18 18 18 17 17 17 17
24 24 24 24 24 24 23 22 21 22 22 21 21 22 22 22 22 21 21 21 21 20 20 20 20 19 19 19 19 19 18 18 18 18 18 18 18 18 18 18 18 18 18 17 17 17 17 17 17
24 24 24 24 24 23 22 22 22 21 22 22 22 22 22 22 22 21 21 21 21 21 21 20 20 20 19 19 19 19 18 18 18 18 18 18 18 18 18 18 18 18 18 17 17 17 17 17 17
25 24 24 24 24 23 23 23 22 22 22 22 22 22 22 22 22 22 21 21 21 21 21 20 20 20 19 19 19 19 18 18 18 18 18 18 18 18 18 18 18 18 18 18 17 17 17 17 17
24 25 24 24 23 22 23 22 22 21 21 21 22 22 22 22 22 22 22 22 21 21 21 20 20 20 19 19 19 19 19 18 18 18 18 18 18 18 18 18 18 18 18 18 17 17 17 17 17
25 24 24 23 22 21 22 22 21 21 21 21 21 22 22 23 22 22 22 22 22 21 21 21 20 20 20 19 19 19 18 18 18 18 18 18 18 18 18 18 17 17 17 17 17 17 17 17 17
24 22 21 19 20 21 22 21 22 20 21 22 22 22 23 23 23 23 22 22 22 21 21 21 20 20 20 19 19 19 18 18 18 18 18 18 18 18 18 17 17 17 17 17 17 17 17 17 17
23 21 21 22 20 20 21 21 21 22 22 22 22 23 23 23 23 23 22 22 22 21 21 21 20 20 20 19 19 19 19 18 18 18 18 18 18 18 17 17 17 17 17 17 17 17 17 17 16
22 21 21 22 21 20 21 21 21 22 22 23 24 24 24 23 23 23 23 23 22 22 21 21 21 20 20 20 19 19 19 18 18 18 18 18 17 17 17 17 17 17 17 17 17 17 16 16 16
22 21 20 19 20 21 21 21 22 23 22 22 22 23 23 23 23 23 23 23 22 22 21 21 21 20 20 20 19 19 19 18 18 18 18 18 17 17 17 17 17 17 17 17 16 16 16 16 16
22 18 18 19 20 21 22 22 21 23 23 21 21 22 23 23 23 23 23 23 22 22 22 21 21 21 20 20 19 19 19 18 18 18 18 17 17 17 17 17 17 17 17 16 16 16 16 16 15
21 20 18 17 18 20 22 22 22 22 22 21 21 22 23 23 23 23 23 23 23 22 22 21 21 21 20 20 19 19 19 18 18 18 18 17 17 17 17 16 16 16 16 16 16 16 16 15 15
23 20 18 20 19 18 19 21 22 21 21 21 22 23 23 23 23 23 23 23 22 22 22 21 21 21 20 20 19 19 19 18 18 18 17 17 17 17 16 16 16 16 16 16 16 15 15 15 15
Wind_Speed
8 7 4 2 5 6 5 4 2 4 4 4 6 7 7 5 2 4 1 5 5 4 4 8 9 10 11 12 13 13 14 14 14 15 15 16 16 17 17 17 17 18 18 18 18 19 19 19 19
5 5 2 4 6 5 4 4 5 5 5 6 7 7 7 5 4 6 3 4 5 5 5 7 9 10 11 12 12 13 14 14 14 14 15 15 15 16 16 17 17 17 17 17 18 18 18 18 18
5 2 4 5 5 4 3 2 7 6 5 4 5 6 5 4 4 4 4 6 6 5 5 6 9 9 10 11 12 13 14 14 14 14 14 14 15 15 16 16 16 16 16 17 17 17 17 16 16
3 3 5 6 5 1 4 5 6 6 6 6 5 6 5 4 5 5 8 8 7 5 5 6 8 9 9 10 11 12 12 13 13 13 13 13 14 14 15 15 15 15 16 16 15 15 15 15 14
3 5 7 5 4 3 4 5 4 5 4 5 6 6 4 4 8 10 9 7 6 4 4 6 8 9 9 10 10 11 11 12 12 13 12 13 13 13 13 13 14 14 14 14 14 14 14 14 13
4 5 6 3 3 4 3 4 5 8 6 6 5 5 3 4 8 8 7 6 5 4 3 5 7 8 8 9 9 10 10 11 11 12 12 12 12 12 12 12 12 12 13 13 13 12 13 12 11
5 5 5 5 4 3 4 3 4 6 6 4 4 5 3 3 5 7 7 6 5 4 3 3 5 6 7 8 8 9 9 9 10 10 11 11 10 10 10 10 10 10 11 11 11 11 11 10 9
5 5 4 3 5 4 5 4 4 6 6 5 5 6 5 5 7 8 7 6 5 4 3 3 4 5 5 5 7 7 8 8 8 9 9 9 8 8 8 8 8 8 9 9 8 8 8 8 8
4 5 3 5 6 5 6 5 4 4 7 4 4 5 7 12 11 9 6 4 3 3 2 2 3 3 4 4 5 5 6 6 6 6 7 6 6 5 5 6 6 6 7 7 7 6 6 6 6
5 4 5 4 6 7 7 6 7 5 5 4 7 8 13 13 11 9 8 7 5 4 3 2 2 2 2 2 4 4 4 5 5 4 4 5 4 4 4 4 4 4 4 5 5 5 5 5 4
4 4 3 2 5 8 7 6 5 9 4 5 10 13 14 12 10 8 7 6 6 4 4 3 2 2 2 1 3 3 3 3 3 3 3 3 3 3 3 3 4 4 4 3 3 4 4 3 2
3 2 3 4 5 7 8 6 6 4 4 8 13 15 14 12 11 10 8 6 5 4 4 4 3 2 2 2 2 2 2 1 1 1 1 1 1 1 1 1 2 2 2 2 2 2 3 2 1
4 3 4 6 7 7 8 6 6 3 6 11 14 14 13 12 10 7 6 5 5 5 5 4 4 3 3 2 2 2 2 2 2 2 2 2 1 0 1 1 1 2 1 1 1 1 1 1 1
3 6 6 6 7 5 8 5 5 4 9 12 12 12 11 11 9 6 6 6 6 6 6 5 5 5 4 3 2 2 3 3 3 3 3 3 3 2 1 1 1 2 1 1 1 1 0 1 1
5 8 7 5 5 4 7 5 1 6 9 10 10 9 9 8 8 8 8 8 7 6 5 5 5 4 4 4 3 3 3 3 3 3 4 4 4 3 2 1 1 2 2 1 1 0 0 0 0
5 6 3 1 3 4 6 3 3 7 9 8 8 8 8 7 7 7 7 6 6 5 5 5 6 5 5 3 3 2 2 3 3 3 3 4 5 5 3 2 2 3 1 1 1 1 1 0 1
6 3 2 1 1 4 4 4 5 6 8 8 7 7 7 6 6 6 7 7 6 6 6 5 4 5 4 3 2 2 2 2 2 2 3 4 4 5 4 2 2 2 1 1 1 1 1 1 1
3 3 2 3 3 4 4 4 5 7 8 7 6 6 7 8 8 7 7 6 5 5 4 4 4 4 4 3 2 2 1 0 1 2 2 3 3 4 4 2 2 2 1 1 1 1 1 1 1
6 5 3 3 2 4 4 4 6 8 7 7 7 7 7 7 5 5 6 6 5 4 4 4 4 4 4 2 2 2 1 1 0 1 2 2 3 3 3 2 1 2 2 2 2 2 2 1 2
5 4 2 1 2 4 2 2 4 8 10 9 9 8 7 6 4 5 6 6 6 6 5 5 5 5 4 3 2 2 2 1 1 1 1 2 3 3 3 3 2 2 2 2 2 3 2 2 2
3 6 5 3 3 4 4 3 3 5 5 6 7 7 7 9 9 8 7 7 7 7 7 7 6 5 5 4 3 2 2 2 1 1 1 1 1 2 2 2 2 2 2 3 3 4 4 3 2
3 4 6 6 5 1 2 2 6 5 5 8 9 9 9 9 8 8 8 8 8 7 6 6 5 5 4 5 4 4 3 2 2 1 0 1 1 0 1 1 1 1 1 2 2 3 3 3 3
4 4 5 5 5 3 2 2 7 1 6 11 12 12 11 11 10 10 10 9 7 6 6 5 5 4 4 5 5 4 3 2 1 1 1 1 2 2 2 1 1 1 0 1 1 1 2 3 3
7 8 8 7 5 1 3 3 6 5 8 8 10 12 12 11 11 10 8 7 6 5 6 5 5 4 4 4 5 5 4 3 2 1 1 1 1 2 2 2 1 1 1 0 0 0 1 1 2
6 7 4 4 4 5 2 3 8 8 8 9 10 12 12 11 11 10 9 9 8 7 7 6 6 5 4 4 4 4 4 4 4 3 2 1 0 1 1 1 1 1 1 1 1 1 1 0 1
6 9 8 6 5 4 2 5 8 6 6 6 6 7 9 10 10 10 10 10 9 8 7 7 6 5 4 4 4 3 4 3 2 2 2 2 1 0 1 2 2 2 2 2 2 2 1 1 1
8 4 7 7 3 1 4 7 8 3 3 1 3 6 8 9 9 9 9 9 9 9 9 8 7 6 5 5 4 4 4 4 3 3 3 2 1 1 2 2 2 3 3 2 2 2 2 2 1
7 10 7 7 6 2 4 4 5 6 4 2 3 6 7 8 8 8 8 8 8 8 8 7 7 7 5 5 5 4 4 4 4 4 3 2 2 2 3 3 3 3 3 3 3 3 2 3 2
6 6 6 6 6 7 3 7 6 8 6 5 5 5 7 9 10 9 9 8 8 7 7 7 7 6 5 5 5 4 4 4 4 4 4 3 3 3 3 3 4 4 3 3 3 3 3 4 3
6 9 9 7 4 5 5 7 6 6 6 5 5 5 6 7 8 8 9 8 8 8 7 7 7 6 6 5 5 5 4 5 5 4 4 4 4 4 3 3 4 3 4 4 4 4 4 4 4
Wind_Direction
154 147 139 105 56 50 35 9 64 70 57 55 75 83 86 66 81 127 98 115 107 90 92 98 92 88 86 90 93 95 97 96 97 99 101 101 99 100 100 100 99 100 101 102 102 102 102 103 107
149 147 114 64 73 61 12 7 71 78 123 116 79 73 72 61 62 103 114 118 106 104 93 100 97 92 90 90 91 94 99 96 98 99 100 100 100 100 100 99 98 99 101 102 103 102 101 102 105
154 146 87 69 79 123 134 100 109 109 101 79 75 64 73 93 115 133 144 125 101 96 98 109 103 98 95 94 93 92 95 96 97 98 98 99 100 101 100 99 100 100 100 101 101 102 102 101 103
123 57 55 66 69 119 150 153 133 115 72 57 84 71 67 93 135 133 126 120 106 94 102 117 110 105 101 98 97 97 97 98 99 99 98 99 99 100 101 100 99 98 98 100 102 103 102 103 105
67 74 61 55 44 56 105 141 125 97 83 71 82 87 55 41 100 116 123 122 117 103 113 125 116 110 107 103 100 100 101 101 100 100 101 100 100 100 102 101 100 99 100 102 102 102 103 105 107
61 69 81 85 65 67 97 111 96 88 90 87 85 90 58 89 109 123 121 114 110 109 108 121 121 113 110 108 106 104 103 102 101 102 103 101 100 101 102 104 104 103 104 104 104 104 104 106 108
98 85 113 131 113 114 151 118 105 113 106 106 105 93 90 117 123 122 111 104 98 96 89 86 105 113 113 111 108 106 105 104 103 102 102 101 100 101 103 107 109 108 108 106 105 106 106 107 109
117 95 90 127 140 160 145 109 104 112 107 115 109 127 160 171 132 111 100 94 93 86 76 76 84 92 94 104 112 113 112 110 105 102 101 99 96 97 99 99 109 110 109 108 107 106 105 106 106
91 78 140 182 167 162 145 125 127 90 110 111 97 130 148 138 128 117 109 104 119 132 94 85 89 93 97 108 120 116 114 107 97 93 94 85 70 67 75 87 101 108 109 111 109 102 95 92 91
82 117 199 197 170 150 146 137 140 113 114 91 81 92 122 136 142 146 155 164 172 177 178 153 134 132 125 115 98 88 85 83 82 78 77 75 71 57 56 60 75 85 93 102 99 88 79 75 72
112 157 178 129 136 130 130 130 120 127 151 166 145 141 142 148 155 163 173 179 184 183 185 175 175 175 155 105 106 97 88 83 82 81 82 80 67 43 37 34 26 29 40 51 58 54 55 62 72
100 79 111 116 116 123 136 129 110 141 183 154 145 147 151 160 172 179 181 185 176 175 195 190 177 177 180 160 133 135 126 113 112 128 126 113 66 21 24 19 2 4 15 25 34 40 37 33 34
73 65 62 86 92 103 105 107 115 115 120 125 135 147 161 170 179 185 180 179 178 190 199 191 179 184 182 171 182 167 175 187 212 209 206 197 198 265 321 323 317 314 327 352 8 29 0 330 308
81 79 74 72 81 86 104 89 93 129 128 133 145 160 172 177 176 171 171 182 190 195 197 185 185 185 177 182 194 190 189 199 211 223 217 208 209 223 246 281 291 289 280 264 247 249 294 317 303
87 79 56 50 74 96 99 67 124 154 138 146 159 166 172 176 174 181 186 188 191 190 184 182 187 178 178 190 201 194 191 191 209 222 221 217 216 220 225 235 266 266 260 238 221 227 78 20 137
59 68 74 326 96 119 112 165 201 152 148 161 171 173 174 182 186 188 182 180 178 174 173 182 186 173 180 181 181 173 173 183 212 221 217 221 219 215 206 215 247 254 241 177 166 164 130 152 146
40 103 156 255 171 137 133 185 189 164 162 175 181 180 178 182 191 190 181 178 176 175 172 174 168 162 168 161 143 147 156 174 206 216 215 220 219 210 199 212 234 224 181 177 203 152 162 162 142
183 165 193 212 206 144 153 191 176 174 176 186 187 186 184 190 200 188 177 172 169 170 167 165 157 153 142 123 106 97 88 124 197 215 222 216 212 203 196 210 222 176 152 168 162 162 153 160 149
155 155 186 234 192 145 174 188 190 183 187 195 200 196 194 201 192 168 168 164 160 162 161 165 166 160 138 125 139 136 172 208 249 235 226 216 209 202 193 212 202 181 181 196 182 158 148 150 138
141 144 186 322 83 130 140 224 208 196 203 202 201 202 199 194 181 173 171 172 172 176 184 175 178 171 167 166 154 155 156 171 198 255 227 215 210 211 207 196 209 203 190 193 186 165 164 187 171
163 173 184 163 62 56 87 346 239 228 217 212 206 199 197 198 195 191 183 188 185 188 192 190 185 182 179 165 126 97 73 42 26 3 340 319 224 218 215 207 205 204 194 203 203 188 186 198 206
221 213 155 134 110 351 114 247 272 231 227 218 213 203 200 200 194 193 192 195 198 197 188 185 182 181 172 158 160 162 167 186 224 221 307 16 36 93 170 173 172 185 188 205 221 198 200 191 209
181 96 107 109 114 71 37 152 285 216 236 233 218 209 204 197 192 195 197 197 196 186 182 183 178 177 170 166 170 168 177 189 171 98 69 41 27 39 54 77 81 86 130 215 225 200 201 201 211
118 74 58 50 70 43 240 166 274 228 224 233 215 207 203 197 192 193 188 180 183 177 179 177 178 184 173 167 165 171 180 177 168 159 137 59 26 21 31 54 60 50 52 21 297 156 172 197 204
99 96 50 16 16 252 268 191 251 254 237 227 213 202 200 194 189 185 178 179 181 180 183 180 177 186 179 171 169 175 180 178 182 180 172 156 63 23 11 45 52 38 45 53 61 82 80 132 170
158 137 152 177 206 266 316 236 258 272 268 240 208 187 184 186 188 188 184 181 182 182 184 180 178 182 176 174 170 161 157 162 169 165 153 152 145 99 49 66 61 47 48 56 68 67 52 58 75
130 147 151 128 142 125 281 287 303 309 333 287 169 166 180 188 188 187 180 178 180 179 184 184 178 174 176 176 159 149 149 150 150 142 130 125 111 85 70 74 67 54 53 56 67 62 44 54 50
133 141 107 120 142 206 294 286 261 277 271 273 192 186 188 180 177 177 176 176 177 179 175 171 172 171 171 164 156 151 145 144 139 126 117 107 86 75 78 71 63 55 51 52 57 51 39 58 44
111 99 105 110 143 150 206 266 233 232 229 222 224 203 184 175 175 176 173 172 163 159 160 163 163 158 157 155 144 138 136 128 119 110 106 102 89 86 83 76 68 55 47 47 61 55 50 56 46
149 154 145 148 182 161 162 258 276 231 230 213 213 203 183 170 171 167 161 156 154 159 160 162 162 161 160 150 139 137 127 117 109 102 96 93 89 83 82 79 73 59 53 55 66 63 53 57 53
Height
1490 1490 1491 1493 1498 1511 1517 1511 1506 1507 1509 1509 1509 1510 1513 1517 1520 1526 1523 1522 1523 1523 1523 1524 1523 1523 1523 1522 1523 1523 1523 1524 1524 1524 1525 1525 1526 1527 1527 1528 1529 1530 1531 1532 1533 1534 1534 1534 1534
1490 1491 1494 1495 1508 1526 1523 1512 1510 1509 1510 1511 1512 1513 1515 1518 1519 1521 1522 1524 1525 1525 1526 1526 1526 1526 1526 1526 1526 1525 1526 1527 1527 1528 1528 1529 1529 1530 1531 1532 1532 1533 1534 1535 1536 1537 1538 1538 1539
1492 1493 1495 1500 1515 1524 1521 1512 1510 1510 1511 1511 1514 1516 1518 1521 1522 1523 1524 1525 1526 1527 1528 1529 1529 1529 1529 1529 1529 1529 1530 1530 1531 1531 1532 1532 1533 1534 1534 1535 1536 1537 1538 1539 1540 1541 1542 1542 1544
1493 1495 1497 1508 1516 1514 1512 1512 1511 1511 1513 1514 1515 1519 1522 1524 1525 1525 1526 1527 1528 1529 1530 1531 1531 1532 1532 1532 1532 1532 1533 1534 1534 1535 1535 1536 1536 1537 1538 1538 1539 1540 1541 1542 1543 1544 1545 1546 1547
1494 1496 1506 1518 1516 1512 1511 1511 1512 1512 1514 1516 1517 1521 1525 1527 1527 1528 1528 1530 1531 1532 1533 1533 1534 1534 1535 1535 1535 1536 1536 1537 1537 1538 1538 1539 1539 1540 1541 1541 1542 1543 1544 1545 1546 1547 1548 1550 1551
1496 1499 1518 1525 1518 1514 1513 1513 1514 1515 1517 1519 1520 1523 1527 1529 1530 1530 1531 1532 1533 1534 1535 1536 1536 1537 1537 1538 1538 1539 1539 1540 1540 1541 1541 1542 1543 1543 1544 1545 1546 1546 1547 1548 1549 1550 1551 1553 1554
1498 1506 1518 1520 1519 1517 1515 1515 1516 1516 1518 1520 1522 1525 1528 1530 1532 1532 1533 1535 1536 1536 1537 1538 1539 1539 1540 1541 1541 1542 1542 1543 1543 1544 1544 1545 1546 1546 1547 1548 1549 1549 1550 1551 1552 1553 1554 1555 1557
1497 1505 1516 1519 1519 1518 1515 1516 1518 1518 1520 1522 1523 1525 1528 1531 1533 1534 1535 1536 1538 1539 1539 1540 1541 1542 1542 1543 1543 1544 1545 1545 1546 1546 1547 1548 1548 1549 1550 1550 1551 1552 1553 1554 1555 1556 1557 1558 1559
1499 1511 1520 1517 1517 1515 1514 1516 1519 1520 1521 1523 1525 1526 1529 1531 1533 1535 1536 1538 1539 1540 1541 1542 1543 1544 1544 1545 1545 1546 1547 1547 1548 1549 1550 1550 1551 1552 1552 1553 1554 1555 1555 1556 1557 1558 1559 1560 1561
1500 1514 1513 1508 1508 1510 1513 1515 1518 1521 1523 1525 1526 1529 1531 1533 1535 1536 1537 1539 1540 1541 1543 1544 1545 1546 1546 1547 1548 1548 1549 1550 1551 1551 1552 1553 1553 1554 1555 1555 1556 1557 1557 1558 1559 1560 1561 1562 1563
1501 1507 1505 1505 1507 1509 1513 1517 1519 1521 1525 1525 1526 1529 1532 1534 1536 1538 1540 1541 1542 1543 1544 1545 1546 1547 1548 1549 1550 1551 1551 1552 1553 1554 1555 1555 1556 1557 1557 1558 1558 1559 1560 1560 1561 1562 1563 1564 1564
1502 1504 1504 1506 1508 1511 1514 1517 1520 1522 1523 1524 1527 1529 1532 1535 1537 1539 1541 1542 1544 1545 1546 1547 1548 1549 1550 1551 1552 1553 1554 1554 1555 1556 1557 1557 1558 1559 1559 1560 1560 1561 1562 1562 1563 1564 1564 1565 1565
1503 1505 1506 1508 1510 1513 1516 1519 1521 1523 1524 1526 1528 1531 1533 1535 1538 1540 1542 1544 1546 1547 1548 1549 1550 1551 1552 1553 1554 1554 1555 1556 1557 1558 1558 1559 1560 1560 1561 1561 1562 1563 1563 1564 1564 1565 1565 1565 1566
1505 1507 1509 1511 1513 1515 1518 1521 1523 1525 1526 1528 1530 1532 1534 1536 1539 1541 1543 1545 1546 1548 1549 1550 1551 1552 1553 1554 1555 1556 1557 1557 1558 1559 1560 1560 1561 1561 1562 1563 1563 1564 1564 1564 1565 1565 1565 1566 1566
1506 1510 1513 1515 1515 1518 1521 1526 1525 1526 1528 1530 1532 1533 1535 1537 1540 1541 1543 1545 1547 1549 1550 1551 1552 1553 1554 1555 1556 1557 1558 1558 1559 1560 1561 1561 1562 1562 1563 1563 1564 1564 1565 1565 1565 1565 1565 1565 1566
1510 1517 1524 1519 1517 1519 1525 1534 1527 1527 1529 1531 1533 1535 1536 1538 1540 1542 1544 1546 1547 1549 1550 1551 1552 1554 1555 1556 1557 1558 1558 1559 1560 1561 1561 1561 1562 1563 1563 1563 1564 1564 1565 1565 1565 1565 1565 1565 1565
1521 1528 1528 1522 1518 1519 1524 1530 1527 1528 1529 1531 1533 1535 1537 1539 1540 1542 1544 1546 1547 1549 1550 1552 1553 1554 1555 1556 1557 1558 1559 1560 1560 1561 1561 1562 1562 1563 1563 1563 1564 1564 1564 1564 1564 1564 1564 1564 1564
1528 1528 1527 1526 1519 1520 1525 1527 1526 1527 1529 1531 1533 1534 1536 1537 1539 1541 1544 1546 1547 1549 1550 1552 1553 1554 1555 1556 1557 1558 1558 1559 1560 1561 1562 1562 1562 1562 1563 1563 1563 1564 1564 1564 1563 1563 1563 1563 1563
1517 1522 1526 1522 1517 1521 1525 1527 1526 1527 1529 1530 1532 1533 1535 1536 1539 1541 1544 1545 1547 1548 1549 1551 1552 1553 1555 1556 1557 1558 1558 1559 1560 1561 1561 1561 1562 1562 1562 1562 1563 1563 1563 1562 1562 1562 1562 1562 1562
1515 1522 1524 1521 1517 1522 1527 1528 1525 1525 1525 1527 1529 1531 1533 1536 1538 1540 1542 1544 1545 1547 1548 1550 1551 1553 1554 1555 1556 1557 1558 1559 1559 1560 1561 1561 1561 1561 1561 1561 1561 1561 1561 1561 1561 1560 1560 1560 1560
1515 1520 1521 1523 1522 1523 1528 1532 1527 1524 1525 1526 1528 1530 1532 1534 1535 1538 1541 1542 1544 1545 1547 1549 1550 1552 1553 1554 1555 1557 1558 1558 1559 1559 1559 1560 1560 1560 1560 1560 1560 1560 1560 1559 1559 1558 1558 1558 1558
1519 1511 1514 1520 1530 1539 1533 1548 1531 1525 1524 1524 1524 1526 1529 1531 1533 1536 1538 1540 1542 1544 1546 1548 1549 1551 1552 1553 1554 1555 1556 1557 1558 1558 1559 1559 1559 1559 1559 1558 1558 1558 1557 1557 1557 1556 1556 1556 1556
1511 1509 1515 1521 1531 1540 1539 1546 1538 1526 1526 1521 1520 1522 1524 1527 1530 1532 1535 1538 1540 1543 1545 1547 1548 1550 1551 1552 1553 1554 1555 1556 1557 1557 1558 1557 1557 1557 1557 1557 1556 1556 1555 1555 1555 1554 1554 1553 1553
1507 1515 1523 1532 1540 1552 1543 1547 1542 1529 1520 1514 1514 1517 1520 1523 1527 1530 1533 1536 1539 1541 1543 1545 1547 1549 1550 1551 1552 1553 1554 1554 1555 1556 1556 1556 1556 1556 1555 1555 1554 1554 1553 1553 1552 1552 1551 1551 1550
1510 1529 1550 1553 1562 1558 1542 1543 1538 1515 1510 1508 1509 1511 1515 1519 1523 1526 1530 1533 1536 1538 1541 1543 1545 1547 1549 1550 1551 1552 1553 1553 1554 1554 1555 1555 1554 1554 1554 1553 1552 1552 1551 1550 1550 1550 1549 1548 1548
1513 1523 1549 1560 1563 1557 1544 1545 1526 1509 1506 1505 1506 1509 1512 1516 1520 1523 1526 1530 1533 1536 1539 1542 1543 1545 1547 1548 1550 1551 1551 1552 1553 1553 1553 1553 1553 1552 1552 1551 1550 1550 1549 1548 1548 1547 1547 1546 1546
1514 1522 1525 1545 1551 1556 1549 1536 1518 1506 1505 1505 1506 1508 1510 1514 1517 1521 1524 1528 1531 1535 1537 1540 1542 1544 1546 1547 1548 1549 1550 1551 1551 1552 1552 1552 1551 1551 1550 1549 1549 1548 1548 1547 1546 1546 1545 1545 1544
1504 1515 1532 1545 1559 1560 1547 1540 1532 1513 1508 1506 1506 1507 1508 1512 1515 1519 1522 1526 1530 1533 1536 1539 1541 1543 1544 1546 1547 1548 1549 1549 1550 1550 1550 1550 1550 1550 1549 1548 1548 1547 1547 1546 1545 1545 1544 1543 1543
1510 1518 1529 1542 1544 1558 1557 1544 1513 1509 1506 1505 1504 1505 1507 1510 1513 1516 1520 1524 1528 1531 1534 1537 1539 1541 1543 1545 1546 1546 1547 1548 1549 1549 1549 1549 1549 1549 1548 1548 1547 1547 1546 1545 1545 1544 1543 1543 1542
1498 1509 1521 1535 1544 1548 1550 1540 1504 1503 1502 1502 1503 1504 1506 1509 1512 1515 1519 1523 1526 1529 1533 1536 1538 1540 1542 1543 1544 1545 1546 1547 1548 1548 1549 1549 1549 1548 1548 1548 1547 1546 1546 1545 1544 1543 1543 1542 1541